N0HOT Weather Reports


Display with metric or nautical units.
time (UTC)temp
F
wind
direction
speed
MPH
gust
MPH
rain 1hr
in
rain 24hr
in
rain mn
in
humidity
%
barometer
mb
20260508182216 70 270 4.0 6.0 0.00 0.00 0.00 15 1005.3
20260508181712 70 258 4.0 4.0 0.00 0.00 0.00 14 1005.6
20260508181209 70 277 5.0 6.0 0.00 0.00 0.00 15 1005.3
20260508180706 70 334 4.0 6.0 0.00 0.00 0.00 14 1005.6
20260508180203 69 276 8.0 10.0 0.00 0.00 0.00 15 1005.6
20260508175659 69 263 7.0 9.0 0.00 0.00 0.00 13 1005.6
20260508175156 68 298 5.0 8.0 0.00 0.00 0.00 15 1006.0
20260508174654 68 298 6.0 8.0 0.00 0.00 0.00 15 1006.0
20260508174150 68 268 5.0 6.0 0.00 0.00 0.00 18 1006.3
20260508173647 68 213 3.0 6.0 0.00 0.00 0.00 19 1006.3
20260508173143 68 262 4.0 4.0 0.00 0.00 0.00 17 1006.3
20260508172640 68 312 3.0 4.0 0.00 0.00 0.00 17 1006.6
20260508172137 68 273 3.0 4.0 0.00 0.00 0.00 18 1006.6
20260508171634 68 287 6.0 8.0 0.00 0.00 0.00 17 1006.6
20260508171130 68 267 3.0 4.0 0.00 0.00 0.00 16 1006.6
20260508170627 68 264 7.0 10.0 0.00 0.00 0.00 16 1006.6
20260508170125 67 278 5.0 6.0 0.00 0.00 0.00 20 1006.6
20260508165622 67 275 4.0 4.0 0.00 0.00 0.00 18 1007.0
20260508165119 67 270 4.0 6.0 0.00 0.00 0.00 21 1007.0
20260508164615 67 232 3.0 4.0 0.00 0.00 0.00 20 1007.3
20260508164112 66 282 4.0 6.0 0.00 0.00 0.00 21 1007.0
20260508163609 66 243 5.0 7.0 0.00 0.00 0.00 20 1007.3
20260508163106 66 257 5.0 6.0 0.00 0.00 0.00 20 1007.3
20260508162602 66 275 2.0 3.0 0.00 0.00 0.00 24 1007.3
20260508162100 66 282 2.0 3.0 0.00 0.00 0.00 23 1007.7
20260508161557 65 242 2.0 3.0 0.00 0.00 0.00 24 1007.7
20260508161054 65 238 3.0 4.0 0.00 0.00 0.00 22 1008.0
20260508160552 65 271 4.0 4.0 0.00 0.00 0.00 21 1008.0
20260508160049 65 259 5.0 7.0 0.00 0.00 0.00 22 1008.0
20260508155546 65 268 1.0 2.0 0.00 0.00 0.00 24 1008.3
20260508155043 65 292 4.0 6.0 0.00 0.00 0.00 22 1008.3
20260508154540 65 253 2.0 3.0 0.00 0.00 0.00 22 1008.3
20260508154037 64 219 1.0 2.0 0.00 0.00 0.00 25 1008.7
20260508153534 63 201 2.0 2.0 0.00 0.00 0.00 26 1008.7
20260508153030 63 242 3.0 3.0 0.00 0.00 0.00 23 1008.7
20260508152528 62 277 2.0 2.0 0.00 0.00 0.00 23 1009.0
20260508152023 62 204 1.0 1.0 0.00 0.00 0.00 25 1008.7
20260508151520 61 241 1.0 1.0 0.00 0.00 0.00 26 1008.7
20260508151016 60 246 2.0 3.0 0.00 0.00 0.00 25 1008.7
20260508150514 59 277 2.0 2.0 0.00 0.00 0.00 26 1009.0
20260508150010 59 256 4.0 7.0 0.00 0.00 0.00 27 1009.0
20260508145507 58 325 1.0 1.0 0.00 0.00 0.00 31 1009.4
20260508145003 57 237 3.0 4.0 0.00 0.00 0.00 29 1009.4
20260508144500 56 211 2.0 3.0 0.00 0.00 0.00 30 1009.4
20260508143958 55 248 2.0 2.0 0.00 0.00 0.00 36 1009.8
20260508143455 54 264 2.0 2.0 0.00 0.00 0.00 34 1010.1
20260508142951 53 202 1.0 1.0 0.00 0.00 0.00 36 1010.1
20260508142449 52 183 1.0 1.0 0.00 0.00 0.00 36 1010.1
20260508141945 51 13 0.0 0.0 0.00 0.00 0.00 38 1010.5
20260508141441 50 251 1.0 2.0 0.00 0.00 0.00 42 1010.5
20260508140939 49 32 0.0 1.0 0.00 0.00 0.00 44 1010.5
20260508140436 48 32 0.0 0.0 0.00 0.00 0.00 45 1010.5
20260508135931 47 27 0.0 1.0 0.00 0.00 0.00 49 1010.8
20260508135429 46 27 1.0 1.0 0.00 0.00 0.00 51 1011.1
20260508134925 45 27 0.0 0.0 0.00 0.00 0.00 53 1010.8
20260508134421 43 27 1.0 2.0 0.00 0.00 0.00 54 1011.5
20260508133918 43 27 1.0 1.0 0.00 0.00 0.00 55 1011.5
20260508133416 42 27 0.0 0.0 0.00 0.00 0.00 55 1011.1
20260508132913 40 27 0.0 1.0 0.00 0.00 0.00 56 1011.5
20260508132411 39 27 1.0 1.0 0.00 0.00 0.00 58 1011.5
20260508131907 38 26 0.0 0.0 0.00 0.00 0.00 61 1011.8
20260508131403 38 26 0.0 1.0 0.00 0.00 0.00 61 1011.8
20260508130859 37 27 0.0 1.0 0.00 0.00 0.00 61 1011.8
20260508130356 36 27 0.0 0.0 0.00 0.00 0.00 64 1012.2
20260508125852 35 26 0.0 0.0 0.00 0.00 0.00 66 1012.2
20260508125348 34 26 0.0 0.0 0.00 0.00 0.00 67 1012.2
20260508124847 34 27 0.0 1.0 0.00 0.00 0.00 69 1012.2
20260508124344 34 27 0.0 0.0 0.00 0.00 0.00 71 1012.2
20260508123842 33 27 0.0 0.0 0.00 0.00 0.00 72 1012.2
20260508123340 33 27 0.0 0.0 0.00 0.00 0.00 73 1012.2
20260508122836 33 27 0.0 0.0 0.00 0.00 0.00 74 1012.5
20260508122333 32 27 0.0 0.0 0.00 0.00 0.00 74 1012.2
20260508121830 32 27 0.0 0.0 0.00 0.00 0.00 74 1012.5
20260508121328 32 27 0.0 0.0 0.00 0.00 0.00 75 1012.2
20260508120826 32 27 0.0 0.0 0.00 0.00 0.00 75 1012.2
20260508120323 31 27 0.0 0.0 0.00 0.00 0.00 75 1012.2
20260508115820 31 27 0.0 0.0 0.00 0.00 0.00 75 1012.2
20260508115318 31 27 0.0 0.0 0.00 0.00 0.00 75 1012.2
20260508114814 31 27 0.0 0.0 0.00 0.00 0.00 76 1012.2
20260508114312 30 27 0.0 0.0 0.00 0.00 0.00 75 1012.2
20260508113808 30 27 0.0 0.0 0.00 0.00 0.00 75 1012.2
20260508113307 30 27 0.0 0.0 0.00 0.00 0.00 75 1012.2
20260508112803 30 27 0.0 0.0 0.00 0.00 0.00 75 1012.2
20260508112300 30 27 0.0 0.0 0.00 0.00 0.00 75 1012.2
20260508111755 30 27 0.0 0.0 0.00 0.00 0.00 75 1012.2
20260508111254 30 27 0.0 0.0 0.00 0.00 0.00 75 1012.2
20260508110750 30 27 0.0 0.0 0.00 0.00 0.00 75 1012.2
20260508110248 30 27 0.0 0.0 0.00 0.00 0.00 75 1012.2
20260508105748 30 27 0.0 0.0 0.00 0.00 0.00 74 1012.2
20260508105245 30 27 0.0 0.0 0.00 0.00 0.00 74 1011.8
20260508104742 31 27 0.0 0.0 0.00 0.00 0.00 74 1012.2
20260508104239 31 27 0.0 0.0 0.00 0.00 0.00 74 1012.2
20260508103736 31 27 0.0 0.0 0.00 0.00 0.00 74 1012.2
20260508103233 31 27 0.0 0.0 0.00 0.00 0.00 74 1012.2
20260508102730 31 27 0.0 0.0 0.00 0.00 0.00 73 1012.2
20260508102228 31 27 0.0 0.0 0.00 0.00 0.00 73 1012.2
20260508101725 31 27 0.0 0.0 0.00 0.00 0.00 73 1012.2
20260508101222 31 27 0.0 0.0 0.00 0.00 0.00 73 1012.2
20260508100720 31 27 0.0 0.0 0.00 0.00 0.00 73 1012.2
20260508100218 31 27 0.0 0.0 0.00 0.00 0.00 73 1012.2
20260508095713 31 27 0.0 0.0 0.00 0.00 0.00 72 1012.2
20260508095212 31 27 0.0 0.0 0.00 0.00 0.00 72 1012.2
20260508094708 32 27 0.0 0.0 0.00 0.00 0.00 72 1012.2
20260508094205 32 27 0.0 0.0 0.00 0.00 0.00 72 1012.2
20260508093702 32 27 0.0 0.0 0.00 0.00 0.00 72 1012.2
20260508093200 32 27 0.0 0.0 0.00 0.00 0.00 71 1012.2
20260508092657 32 27 0.0 0.0 0.00 0.00 0.00 71 1012.2
20260508092155 32 27 0.0 0.0 0.00 0.00 0.00 71 1012.2
20260508091652 32 27 0.0 0.0 0.00 0.00 0.00 70 1012.2
20260508091149 32 27 0.0 0.0 0.00 0.00 0.00 70 1012.5
20260508090647 32 27 0.0 0.0 0.00 0.00 0.00 70 1012.2
20260508090144 32 27 0.0 0.0 0.00 0.00 0.00 69 1012.5
20260508085640 32 27 0.0 0.0 0.00 0.00 0.00 68 1012.5
20260508085138 32 27 0.0 0.0 0.00 0.00 0.00 68 1012.5
20260508084634 32 27 0.0 0.0 0.00 0.00 0.00 68 1012.5
20260508084131 33 27 0.0 0.0 0.00 0.00 0.00 68 1012.5
20260508083628 33 27 0.0 0.0 0.00 0.00 0.00 68 1012.5
20260508083126 33 27 0.0 0.0 0.00 0.00 0.00 67 1012.5
20260508082621 33 27 0.0 0.0 0.00 0.00 0.00 67 1012.5
20260508082119 33 27 0.0 0.0 0.00 0.00 0.00 67 1012.2
20260508081616 33 27 0.0 0.0 0.00 0.00 0.00 67 1012.5
20260508081112 33 27 0.0 0.0 0.00 0.00 0.00 67 1012.2
20260508080610 33 27 0.0 0.0 0.00 0.00 0.00 66 1012.5
20260508080108 34 27 0.0 0.0 0.00 0.00 0.00 66 1012.2
20260508075603 34 27 0.0 0.0 0.00 0.00 0.00 67 1012.2
20260508075101 34 27 0.0 0.0 0.00 0.00 0.00 67 1012.5
20260508074558 34 27 0.0 0.0 0.00 0.00 0.00 66 1012.5
20260508074055 34 27 0.0 0.0 0.00 0.00 0.00 66 1012.2
20260508073553 34 27 0.0 0.0 0.00 0.00 0.00 64 1012.5
20260508073050 35 27 0.0 0.0 0.00 0.00 0.00 64 1012.5
20260508072545 35 27 0.0 0.0 0.00 0.00 0.00 64 1012.2
20260508072043 35 27 0.0 0.0 0.00 0.00 0.00 63 1012.5
20260508071541 35 27 0.0 0.0 0.00 0.00 0.00 61 1012.5
20260508071038 35 27 0.0 0.0 0.00 0.00 0.00 59 1012.5
20260508070536 35 27 0.0 0.0 0.00 0.00 0.00 58 1012.2
20260508070035 35 27 0.0 0.0 0.00 0.00 0.00 60 1012.5
20260508065532 35 27 0.0 0.0 0.00 0.00 0.00 58 1012.5
20260508065030 35 27 0.0 0.0 0.00 0.00 0.00 59 1012.2
20260508064527 36 27 0.0 0.0 0.00 0.00 0.00 59 1012.5
20260508064025 36 27 0.0 0.0 0.00 0.00 0.00 58 1012.5
20260508063521 36 27 0.0 0.0 0.00 0.00 0.00 59 1012.5
20260508063019 36 27 0.0 0.0 0.00 0.00 0.00 59 1012.5
20260508062517 36 27 0.0 0.0 0.00 0.00 0.00 57 1012.5
20260508062013 36 27 0.0 0.0 0.00 0.00 0.00 57 1012.5
20260508061512 37 27 0.0 0.0 0.00 0.00 0.00 57 1012.8
20260508061008 37 27 0.0 0.0 0.00 0.00 0.00 57 1012.5
20260508060505 37 27 0.0 1.0 0.00 0.00 0.00 60 1012.5
20260508060002 37 27 0.0 1.0 0.00 0.00 0.00 59 1012.8
20260508055458 38 27 0.0 0.0 0.00 0.00 0.00 53 1012.5
20260508054954 38 27 0.0 1.0 0.00 0.00 0.00 53 1012.5
20260508054451 38 27 1.0 1.0 0.00 0.00 0.00 54 1012.5
20260508053948 39 27 0.0 0.0 0.00 0.00 0.00 54 1012.5
20260508053445 39 27 0.0 0.0 0.00 0.00 0.00 55 1012.5
20260508052943 39 27 0.0 0.0 0.00 0.00 0.00 54 1012.5
20260508052440 39 27 0.0 0.0 0.00 0.00 0.00 52 1012.8
20260508051937 39 27 0.0 0.0 0.00 0.00 0.00 51 1012.2
20260508051432 40 27 0.0 0.0 0.00 0.00 0.00 51 1012.2
20260508050928 40 27 0.0 0.0 0.00 0.00 0.00 52 1012.5
20260508050425 40 27 0.0 0.0 0.00 0.00 0.00 53 1012.5
20260508045921 40 27 0.0 0.0 0.00 0.00 0.00 50 1012.5
20260508045419 41 27 0.0 0.0 0.00 0.00 0.00 50 1012.2
20260508044916 41 27 0.0 0.0 0.00 0.00 0.00 49 1012.5
20260508044413 41 27 0.0 0.0 0.00 0.00 0.00 49 1012.2
20260508043909 41 27 0.0 0.0 0.00 0.00 0.00 49 1012.2
20260508043406 41 27 0.0 0.0 0.00 0.00 0.00 48 1012.2
20260508042902 41 27 0.0 0.0 0.00 0.00 0.00 47 1012.2
20260508042400 42 27 0.0 0.0 0.00 0.00 0.00 47 1012.2
20260508041857 42 27 0.0 0.0 0.00 0.00 0.00 46 1012.5
20260508041353 42 27 0.0 0.0 0.00 0.00 0.00 43 1012.2
20260508040850 43 27 0.0 0.0 0.00 0.00 0.00 42 1012.2
20260508040347 43 27 0.0 0.0 0.00 0.00 0.00 40 1012.2
20260508035845 44 27 0.0 0.0 0.00 0.00 0.00 39 1012.2
20260508035342 44 27 0.0 0.0 0.00 0.00 0.00 39 1011.8
20260508034839 44 27 0.0 0.0 0.00 0.00 0.00 39 1012.2
20260508034336 44 27 0.0 0.0 0.00 0.00 0.00 43 1012.2
20260508033832 45 27 0.0 0.0 0.00 0.00 0.00 40 1012.2
20260508033331 45 27 0.0 0.0 0.00 0.00 0.00 36 1012.2
20260508032828 45 27 0.0 0.0 0.00 0.00 0.00 37 1011.8
20260508032326 46 27 0.0 0.0 0.00 0.00 0.00 36 1011.8
20260508031821 46 27 0.0 0.0 0.00 0.00 0.00 36 1011.8
20260508031319 46 27 0.0 0.0 0.00 0.00 0.00 35 1011.8
20260508030815 46 27 0.0 0.0 0.00 0.00 0.00 34 1011.8
20260508030312 47 27 0.0 1.0 0.00 0.00 0.00 33 1011.8
20260508025809 47 27 0.0 0.0 0.00 0.00 0.00 33 1011.8
20260508025306 48 27 0.0 0.0 0.00 0.00 0.00 32 1011.5
20260508024802 49 27 0.0 0.0 0.00 0.00 0.00 33 1011.1
20260508024259 49 27 0.0 0.0 0.00 0.00 0.00 28 1011.5
20260508023756 50 27 0.0 0.0 0.00 0.00 0.00 28 1011.5
20260508023253 50 27 0.0 0.0 0.00 0.00 0.00 27 1011.5
20260508022749 50 27 0.0 0.0 0.00 0.00 0.00 26 1011.1
20260508022246 51 27 0.0 0.0 0.00 0.00 0.00 25 1011.1
20260508021743 51 27 0.0 0.0 0.00 0.00 0.00 24 1011.1
20260508021238 51 27 0.0 0.0 0.00 0.00 0.00 23 1011.1
20260508020735 51 27 1.0 1.0 0.00 0.00 0.00 24 1010.8
20260508020232 52 27 1.0 1.0 0.00 0.00 0.00 24 1010.8
20260508015724 52 27 1.0 1.0 0.00 0.00 0.00 24 1010.8
20260508015221 52 27 0.0 0.0 0.00 0.00 0.00 24 1010.5
20260508014718 52 27 0.0 0.0 0.00 0.00 0.00 23 1010.5
20260508014214 53 27 0.0 0.0 0.00 0.00 0.00 22 1010.5
20260508013710 53 27 0.0 0.0 0.00 0.00 0.00 22 1010.5
20260508013207 53 27 0.0 0.0 0.00 0.00 0.00 21 1010.5
20260508012705 53 27 0.0 0.0 0.00 0.00 0.00 21 1010.5
20260508012201 54 27 0.0 0.0 0.00 0.00 0.00 22 1010.5
20260508011700 55 27 0.0 0.0 0.00 0.00 0.00 21 1010.5
20260508011157 55 27 0.0 0.0 0.00 0.00 0.00 21 1010.1
20260508010653 55 27 0.0 0.0 0.00 0.00 0.00 23 1010.1
20260508010151 56 10 0.0 1.0 0.00 0.00 0.00 20 1010.1
20260508005648 56 34 0.0 1.0 0.00 0.00 0.00 20 1010.1
20260508005145 57 34 1.0 2.0 0.00 0.00 0.00 19 1009.8
20260508004640 57 13 1.0 2.0 0.00 0.00 0.00 19 1009.8
20260508004137 58 44 0.0 0.0 0.00 0.00 0.00 19 1009.8
20260508003633 58 44 0.0 0.0 0.00 0.00 0.00 18 1009.8
20260508003131 58 344 1.0 1.0 0.00 0.00 0.00 19 1009.8
20260508002627 58 285 3.0 3.0 0.00 0.00 0.00 18 1009.8
20260508002125 58 315 1.0 2.0 0.00 0.00 0.00 17 1009.8
20260508001620 58 351 1.0 1.0 0.00 0.00 0.00 18 1009.4
20260508001116 58 15 1.0 1.0 0.00 0.00 0.00 20 1009.4
20260508000612 58 353 1.0 2.0 0.00 0.00 0.00 17 1009.4
20260508000110 58 288 2.0 3.0 0.00 0.00 0.00 18 1009.4
20260507235607 59 351 2.0 3.0 0.00 0.00 0.00 17 1009.4
20260507235104 59 6 1.0 2.0 0.00 0.00 0.00 20 1009.4
20260507234600 59 294 3.0 4.0 0.00 0.00 0.00 17 1009.4
20260507234057 59 345 1.0 2.0 0.00 0.00 0.00 17 1009.0
20260507233554 59 319 2.0 2.0 0.00 0.00 0.00 18 1009.0
20260507233053 59 255 4.0 6.0 0.00 0.00 0.00 18 1009.0
20260507232548 59 359 4.0 6.0 0.00 0.00 0.00 17 1009.0
20260507232046 59 354 0.0 1.0 0.00 0.00 0.00 17 1009.0
20260507231542 60 323 3.0 3.0 0.00 0.00 0.00 17 1009.0
20260507231039 60 321 1.0 2.0 0.00 0.00 0.00 18 1009.0
20260507230536 60 59 1.0 1.0 0.00 0.00 0.00 16 1009.0
20260507230032 60 279 2.0 2.0 0.00 0.00 0.00 17 1008.7
20260507225527 60 310 3.0 3.0 0.00 0.00 0.00 18 1009.0
20260507225024 61 321 4.0 4.0 0.00 0.00 0.00 17 1009.0
20260507224520 61 324 1.0 2.0 0.00 0.00 0.00 19 1009.0
20260507224016 61 30 1.0 2.0 0.00 0.00 0.00 17 1009.0
20260507223513 61 288 6.0 7.0 0.00 0.00 0.00 18 1009.0
20260507223010 61 309 4.0 6.0 0.00 0.00 0.00 17 1009.4
20260507222507 60 156 1.0 2.0 0.00 0.00 0.00 20 1009.0
20260507222003 60 289 2.0 2.0 0.00 0.00 0.00 18 1009.4
20260507221500 60 276 1.0 2.0 0.00 0.00 0.00 18 1009.0
20260507220956 60 345 3.0 3.0 0.00 0.00 0.00 17 1009.0
20260507220454 60 308 4.0 4.0 0.00 0.00 0.00 19 1009.0
20260507215951 60 340 3.0 3.0 0.00 0.00 0.00 18 1009.0
20260507215447 60 322 4.0 6.0 0.00 0.00 0.00 18 1009.4
20260507214945 60 294 1.0 2.0 0.00 0.00 0.00 20 1009.0
20260507214442 60 301 2.0 3.0 0.00 0.00 0.00 18 1009.0
20260507213938 60 47 0.0 1.0 0.00 0.00 0.00 20 1009.4
20260507213434 60 275 2.0 2.0 0.00 0.00 0.00 19 1009.0
20260507212931 60 263 6.0 8.0 0.00 0.00 0.00 19 1009.4
20260507212427 60 315 7.0 11.0 0.00 0.00 0.00 19 1009.0
20260507211924 60 268 2.0 4.0 0.00 0.00 0.00 18 1009.0
20260507211421 60 274 7.0 8.0 0.00 0.00 0.00 20 1009.4
20260507210917 60 7 5.0 6.0 0.00 0.00 0.00 18 1009.4
20260507210414 60 259 2.0 2.0 0.00 0.00 0.00 18 1009.4
20260507205911 60 342 4.0 6.0 0.00 0.00 0.00 19 1009.4
20260507205409 60 341 4.0 6.0 0.00 0.00 0.00 18 1009.4
20260507204904 60 266 2.0 3.0 0.00 0.00 0.00 19 1009.4
20260507204401 60 274 5.0 6.0 0.00 0.00 0.00 20 1009.4
20260507203859 60 280 4.0 6.0 0.00 0.00 0.00 18 1009.8
20260507203357 60 299 6.0 7.0 0.00 0.00 0.00 19 1009.8
20260507202852 60 329 1.0 1.0 0.00 0.00 0.00 19 1009.8
20260507202349 60 350 5.0 6.0 0.00 0.00 0.00 20 1010.1
20260507201844 60 264 2.0 4.0 0.00 0.00 0.00 21 1009.8
20260507201340 59 1 3.0 4.0 0.00 0.00 0.00 23 1009.8
20260507200837 59 345 1.0 1.0 0.00 0.00 0.00 20 1009.8
20260507200333 59 274 1.0 3.0 0.00 0.00 0.00 20 1009.8
20260507195829 59 298 2.0 3.0 0.00 0.00 0.00 23 1009.8
20260507195326 59 15 1.0 2.0 0.00 0.00 0.00 20 1010.1
20260507194824 59 286 6.0 10.0 0.00 0.00 0.00 21 1010.1
20260507194320 59 290 5.0 7.0 0.00 0.00 0.00 23 1010.1
20260507193817 59 329 4.0 4.0 0.00 0.00 0.00 24 1010.1
20260507193314 59 275 1.0 2.0 0.00 0.00 0.00 24 1010.1
20260507192809 59 316 4.0 6.0 0.00 0.00 0.00 23 1010.1
20260507192307 59 258 3.0 4.0 0.00 0.00 0.00 21 1010.5
20260507191803 59 44 1.0 1.0 0.00 0.00 0.00 21 1010.5
20260507191259 58 301 4.0 6.0 0.00 0.00 0.00 23 1010.5
20260507190756 58 245 2.0 2.0 0.00 0.00 0.00 24 1010.5
20260507190255 58 310 6.0 7.0 0.00 0.00 0.00 24 1010.5
20260507185753 58 280 4.0 6.0 0.00 0.00 0.00 24 1010.5
20260507185249 58 173 1.0 2.0 0.00 0.00 0.00 25 1010.5
20260507184747 58 260 7.0 9.0 0.00 0.00 0.00 25 1010.8
20260507184245 57 290 2.0 2.0 0.00 0.00 0.00 25 1010.5
20260507183741 57 83 6.0 9.0 0.00 0.00 0.00 26 1010.5
20260507183238 57 205 3.0 4.0 0.00 0.00 0.00 29 1010.5
20260507182735 57 359 3.0 3.0 0.00 0.00 0.00 28 1010.5